EW2591 Weather Reports


time (UTC)temp
F
wind
direction
speed
knots
gust
knots
rain 1hr
in
rain 24hr
in
rain mn
in
humidity
%
barometer
mb
20260504100318 47 236 4.3 9.6 0.00 0.00 0.00 57
20260504081830 50 198 7.0 13.0 0.00 0.00 0.00 53
20260504081328 50 256 7.0 13.0 0.00 0.00 0.00 53
20260504080828 50 205 6.1 11.3 0.00 0.00 0.00 53
20260504080331 49 272 7.8 14.8 0.00 0.00 0.00 53
20260504070327 49 213 4.3 9.6 0.00 0.00 0.00 57
20260504050319 47 270 0.0 0.0 0.00 0.00 0.00 66
20260504045819 47 270 0.0 0.0 0.00 0.00 0.00 65
20260504045319 47 270 0.0 0.0 0.00 0.00 0.00 64
20260504044818 47 270 0.0 0.0 0.00 0.00 0.00 65
20260504044318 48 270 0.0 0.0 0.00 0.00 0.00 63
20260504043840 48 270 0.0 0.0 0.00 0.00 0.00 63
20260504043342 48 270 0.0 0.0 0.00 0.00 0.00 62
20260504042841 49 270 0.0 0.0 0.00 0.00 0.00 62
20260504042317 49 270 0.0 0.0 0.00 0.00 0.00 61
20260504041817 49 270 0.0 7.0 0.00 0.00 0.00 60
20260504041338 49 270 1.7 7.0 0.00 0.00 0.00 60
20260504040816 49 247 0.9 4.3 0.00 0.00 0.00 61
20260504040317 48 253 1.7 7.0 0.00 0.00 0.00 62
20260504035836 48 237 2.6 7.0 0.00 0.00 0.00 63
20260504035315 47 60 0.9 3.5 0.00 0.00 0.00 65
20260504034814 47 295 0.0 2.6 0.00 0.00 0.00 66
20260504034314 46 297 0.0 3.5 0.00 0.00 0.00 66
20260504033814 46 288 0.0 2.6 0.00 0.00 0.00 67
20260504033315 46 282 0.0 3.5 0.00 0.00 0.00 68
20260504032835 45 282 0.0 6.1 0.00 0.00 0.00 70
20260504032354 44 279 2.6 6.1 0.00 0.00 0.00 74
20260504031854 42 317 0.0 2.6 0.00 0.00 0.00 76
20260504031314 42 316 0.0 2.6 0.00 0.00 0.00 77
20260504030814 41 316 0.0 3.5 0.00 0.00 0.00 77
20260504030316 41 316 0.9 3.5 0.00 0.00 0.00 77
20260504025816 41 335 0.0 4.3 0.00 0.00 0.00 77
20260504025318 41 335 0.0 6.1 0.00 0.00 0.00 77
20260504024837 40 333 0.9 6.1 0.00 0.00 0.00 79
20260504024315 40 10 0.0 3.5 0.00 0.00 0.00 79
20260504023815 40 336 0.0 3.5 0.00 0.00 0.00 80
20260504023335 39 336 0.0 0.0 0.00 0.00 0.00 79
20260504022833 39 335 0.0 0.0 0.00 0.00 0.00 79
20260504022350 39 336 0.0 0.0 0.00 0.00 0.00 78
20260504021849 39 335 0.0 0.0 0.00 0.00 0.00 78
20260504021328 40 336 0.0 0.0 0.00 0.00 0.00 77
20260504020829 40 336 0.0 0.0 0.00 0.00 0.00 77
20260504020350 40 336 0.0 0.0 0.00 0.00 0.00 76
20260504015828 40 336 0.0 0.0 0.00 0.00 0.00 76
20260504015328 40 336 0.0 0.0 0.00 0.00 0.00 75
20260504014828 41 336 0.0 0.0 0.00 0.00 0.00 75
20260504014328 41 336 0.0 0.0 0.00 0.00 0.00 74
20260504013830 41 336 0.0 0.0 0.00 0.00 0.00 73
20260504013330 41 336 0.0 0.0 0.00 0.00 0.00 73
20260504012830 41 335 0.0 0.0 0.00 0.00 0.00 73
20260504012350 41 335 0.0 0.0 0.00 0.00 0.00 72
20260504011829 42 335 0.0 0.0 0.00 0.00 0.00 71
20260504011329 42 335 0.0 0.0 0.00 0.00 0.00 71
20260504010829 42 335 0.0 0.0 0.00 0.00 0.00 71
20260504010331 42 335 0.0 0.0 0.00 0.00 0.00 70
20260504005850 43 335 0.0 0.0 0.00 0.00 0.00 69
20260504005329 43 335 0.0 0.0 0.00 0.00 0.00 69
20260504004829 44 335 0.0 0.0 0.00 0.00 0.00 68
20260504004349 44 335 0.0 0.0 0.00 0.00 0.00 67
20260504003829 44 335 0.0 0.0 0.00 0.00 0.00 66
20260504003330 45 335 0.0 0.0 0.00 0.00 0.00 65
20260504002829 46 335 0.0 0.0 0.00 0.00 0.00 63
20260504002350 46 335 0.0 0.0 0.00 0.00 0.00 61
20260504001851 47 335 0.0 0.0 0.00 0.00 0.00 59
20260504001351 48 335 0.0 0.0 0.00 0.00 0.00 58
20260504000829 48 335 0.0 0.0 0.00 0.00 0.00 57
20260504000349 49 335 0.0 3.5 0.00 0.00 0.00 55
20260503235829 49 335 0.0 3.5 0.00 0.00 0.00 53
20260503235327 49 354 0.0 1.7 0.00 0.00 0.00 53
20260503234828 50 354 0.0 5.2 0.00 0.00 0.00 53
20260503234349 50 8 1.7 5.2 0.00 0.00 0.00 52
20260503233829 50 301 0.9 5.2 0.00 0.00 0.00 52
20260503233326 50 265 2.6 6.1 0.00 0.00 0.00 52
20260503232846 50 286 0.9 8.7 0.00 0.00 0.00 52
20260503232326 50 274 4.3 10.4 0.00 0.00 0.00 52
20260503231826 50 253 2.6 11.3 0.00 0.00 0.00 52
20260503231325 50 212 4.3 13.0 0.00 0.00 0.00 52
20260503230827 50 289 6.1 13.0 0.00 0.00 0.00 51
20260503230327 50 280 3.5 9.6 0.00 0.00 0.00 50
20260503225822 50 298 4.3 12.2 0.00 0.00 0.00 49
20260503225322 51 270 6.1 12.2 0.00 0.00 0.00 48
20260503224823 51 301 1.7 7.0 0.00 0.00 0.00 48
20260503224340 51 290 2.6 7.0 0.00 0.00 0.00 48
20260503223824 51 228 1.7 6.1 0.00 0.00 0.00 47
20260503223325 51 274 2.6 8.7 0.00 0.00 0.00 47
20260503222824 51 354 3.5 8.7 0.00 0.00 0.00 46
20260503222324 51 250 1.7 9.6 0.00 0.00 0.00 46
20260503221843 51 264 3.5 9.6 0.00 0.00 0.00 46
20260503221322 51 217 1.7 7.8 0.00 0.00 0.00 46
20260503220823 51 278 2.6 13.9 0.00 0.00 0.00 45
20260503220323 51 245 5.2 13.9 0.00 0.00 0.00 44
20260503215822 51 266 4.3 10.4 0.00 0.00 0.00 44
20260503215322 51 253 4.3 10.4 0.00 0.00 0.00 43
20260503214823 51 317 4.3 10.4 0.00 0.00 0.00 41
20260503214323 51 268 1.7 6.1 0.00 0.00 0.00 41
20260503213823 51 279 1.7 9.6 0.00 0.00 0.00 41
20260503213346 51 295 3.5 13.9 0.00 0.00 0.00 40
20260503212824 51 263 5.2 13.9 0.00 0.00 0.00 40
20260503212324 52 258 7.0 12.2 0.00 0.00 0.00 39
20260503211825 52 316 4.3 10.4 0.00 0.00 0.00 39
20260503211325 52 359 2.6 10.4 0.00 0.00 0.00 37
20260503210825 52 305 1.7 9.6 0.00 0.00 0.00 37
20260503210326 52 297 3.5 9.6 0.00 0.00 0.00 37
20260503205825 52 258 5.2 17.4 0.00 0.00 0.00 36
20260503205324 52 345 6.1 17.4 0.00 0.00 0.00 35
20260503204824 52 4 4.3 12.2 0.00 0.00 0.00 35
20260503204323 53 202 5.2 9.6 0.00 0.00 0.00 34
20260503203823 52 4 0.9 14.8 0.00 0.00 0.00 36
20260503203342 52 273 7.8 17.4 0.00 0.00 0.00 34
20260503202820 52 247 4.3 10.4 0.00 0.00 0.00 33
20260503202321 52 318 2.6 11.3 0.00 0.00 0.00 34
20260503201821 52 311 4.3 13.0 0.00 0.00 0.00 33
20260503201342 52 16 4.3 13.0 0.00 0.00 0.00 34
20260503200821 52 260 4.3 11.3 0.00 0.00 0.00 34
20260503200323 52 283 7.0 11.3 0.00 0.00 0.00 34
20260503195821 51 252 1.7 7.8 0.00 0.00 0.00 36
20260503195341 51 241 4.3 8.7 0.00 0.00 0.00 36
20260503194821 51 287 3.5 17.4 0.00 0.00 0.00 35
20260503194322 51 252 6.1 17.4 0.00 0.00 0.00 34
20260503193821 51 16 0.9 9.6 0.00 0.00 0.00 36
20260503193322 51 41 4.3 9.6 0.00 0.00 0.00 37
20260503192821 50 247 2.6 10.4 0.00 0.00 0.00 37
20260503192319 50 310 5.2 15.6 0.00 0.00 0.00 37
20260503191819 50 297 3.5 15.6 0.00 0.00 0.00 37
20260503191318 50 233 4.3 13.9 0.00 0.00 0.00 37
20260503190838 50 259 4.3 18.2 0.00 0.00 0.00 37
20260503190322 50 242 8.7 18.2 0.00 0.00 0.00 36
20260503185816 51 236 4.3 14.8 0.00 0.00 0.00 38
20260503185316 50 239 4.3 11.3 0.00 0.00 0.00 38
20260503184835 50 285 3.5 10.4 0.00 0.00 0.00 37
20260503184318 50 322 5.2 12.2 0.00 0.00 0.00 37
20260503183819 50 252 3.5 12.2 0.00 0.00 0.00 37
20260503183321 50 267 3.5 17.4 0.00 0.00 0.00 37
20260503182820 50 243 5.2 17.4 0.00 0.00 0.00 38
20260503182318 50 81 1.7 7.0 0.00 0.00 0.00 41
20260503181818 49 12 1.7 8.7 0.00 0.00 0.00 40
20260503181316 48 293 2.6 14.8 0.00 0.00 0.00 42
20260503180816 47 4 7.0 11.3 0.00 0.00 0.00 42
20260503180318 47 322 2.6 8.7 0.00 0.00 0.00 41
20260503175817 48 335 3.5 11.3 0.00 0.00 0.00 41
20260503175317 48 243 4.3 9.6 0.00 0.00 0.00 40
20260503174818 48 246 2.6 10.4 0.00 0.00 0.00 41
20260503174338 48 305 5.2 10.4 0.00 0.00 0.00 40
20260503173817 47 311 2.6 9.6 0.00 0.00 0.00 41
20260503173318 47 302 1.7 11.3 0.00 0.00 0.00 43
20260503172817 46 262 2.6 9.6 0.00 0.00 0.00 44
20260503172336 46 281 3.5 13.9 0.00 0.00 0.00 44
20260503171814 46 316 4.3 13.9 0.00 0.00 0.00 44
20260503171335 46 302 5.2 12.2 0.00 0.00 0.00 43
20260503170814 46 305 4.3 7.8 0.00 0.00 0.00 43
20260503170315 46 205 0.9 10.4 0.00 0.00 0.00 45
20260503150828 43 212 0.9 5.2 0.00 0.00 0.00 54
20260503150329 42 224 0.0 7.0 0.00 0.00 0.00 54
20260503131322 41 4 0.9 7.8 0.00 0.00 0.00 60
20260503130821 41 330 0.9 9.6 0.00 0.00 0.00 61
20260503130322 41 324 3.5 9.6 0.00 0.00 0.00 61
20260503110828 35 320 0.0 0.0 0.00 0.00 0.00 86
20260503110327 35 320 0.0 0.0 0.00 0.00 0.00 86